Simultaneous Nadir Overpasses (SNOs) Predictions

Prediction of SNOs between NOAA-15 and METOP-C Satellite Orbit:

Table of predicted SNOs for the next 14.0 days since TLE Epoch: 9/4/2020
Index Date (NOAA-15) Time (NOAA-15) Lat,Lon (NOAA-15) SZA (NOAA-15 ) Date (METOP-C) Time (METOP-C) Lat,Lon (METOP-C) SZA (METOP-C ) Distance(km) Time Diff (sec)
1 09/11/2020 04:40:55 80.95, 145.67 78.36 09/11/2020 04:39:43 80.96, 145.73 78.34 1.24 72
2 09/11/2020 05:31:30 -80.95, -46.99 101.63 09/11/2020 05:30:24 -80.96, -46.94 101.65 0.90 66
3 09/11/2020 06:21:58 80.96, 120.19 78.37 09/11/2020 06:21:05 80.95, 120.23 78.35 1.62 53
4 09/11/2020 07:12:33 -80.96, -72.45 101.62 09/11/2020 07:11:46 -80.95, -72.44 101.65 1.55 47
5 09/11/2020 08:03:00 80.96, 95.09 78.41 09/11/2020 08:02:26 80.96, 95.08 78.40 0.31 34
6 09/11/2020 08:53:35 -80.96, -97.56 101.58 09/11/2020 08:53:07 -80.96, -97.59 101.59 0.54 28
7 09/11/2020 09:44:03 80.97, 69.62 78.43 09/11/2020 09:43:48 80.95, 69.58 78.40 1.81 15
8 09/11/2020 10:34:38 -80.97,-123.03 101.57 09/11/2020 10:34:29 -80.95,-123.09 101.59 1.97 9
9 09/11/2020 11:25:05 80.96, 44.51 78.46 09/11/2020 11:25:09 80.96, 44.43 78.46 1.34 4
10 09/11/2020 12:15:40 -80.96,-148.13 101.53 09/11/2020 12:15:50 -80.96,-148.23 101.53 1.73 10
11 09/11/2020 13:06:08 80.97, 19.04 78.48 09/11/2020 13:06:31 80.95, 18.93 78.46 2.65 23
12 09/11/2020 13:56:43 -80.97,-173.60 101.52 09/11/2020 13:57:12 -80.95,-173.74 101.53 2.92 29
13 09/11/2020 14:47:10 80.96, -6.07 78.51 09/11/2020 14:47:52 80.96, -6.22 78.52 2.58 42
14 09/11/2020 15:37:45 -80.96, 161.29 101.48 09/11/2020 15:38:33 -80.96, 161.12 101.48 2.99 48
15 09/11/2020 16:28:13 80.97, -31.54 78.53 09/11/2020 16:29:13 80.97, -31.36 78.57 3.18 60
